Flag for U.S.A. Weather past 2 weeks in Walnut Creek, California, U.S.A.

Now
78 °F

Sunny.


Feels Like: 79 °F
Forecast: 62 / 81 °F
Wind: 10 mph from Southwest

Location: Buchanan Field

Current Time: Sep 1, 2015 at 11:51:17 AM

Latest Report: Sep 1, 2015 at 10:53 AM


Visibility: 10 mi

Pressure: 29.83 "Hg

Humidity: 43%

Dew point: 54 °F

Location of Walnut CreekLocation

Historic Weather in Walnut Creek — Graph

°F

Walnut Creek temperature yesterday

Maximum temperature yesterday: 90 °F (at 2:53 PM)
Minimum temperature yesterday: 64 °F (at 5:53 AM)
Average temperature yesterday: 74 °F

Past Weeks' High & Low Weather Summary

 TemperatureHumidityPressure
High101 °F (Aug 17, 4:53 PM)87% (Aug 29, 10:53 AM)30.00 "Hg (Aug 29, 10:53 AM)
Low58 °F (Aug 25, 4:53 AM)10% (Aug 17, 4:53 PM)29.72 "Hg (Aug 17, 4:53 PM)
Average73 °F55%29.88 "Hg
* Reported Aug 17 10:53 AM — Sep 1 10:53 AM, Walnut Creek, Weather by CustomWeather, © 2015

Note: Actual official high and low records may vary slightly from our data, if they occured in-between our weather recording intervals... More about our weather records

Advertising

Walnut Creek weather history for previous 24 hours

 ConditionsComfort  
Time TempWeatherWind HumidityBarometerVisibility
10:53 AM
Tue, Sep 1
78 °FSunny.10 mph43%29.83 "Hg10 mi
9:53 AM74 °FSunny.9 mph50%29.83 "Hg10 mi
8:53 AM69 °FSunny.13 mph63%29.82 "Hg10 mi
7:53 AM65 °FSunny.14 mph73%29.83 "Hg10 mi
6:53 AM62 °FClear.No wind75%29.82 "Hg10 mi
5:53 AM62 °FClear.No wind75%29.80 "Hg10 mi
4:53 AM64 °FClear.10 mph75%29.80 "Hg10 mi
3:53 AM64 °FClear.10 mph75%29.80 "Hg10 mi
2:53 AM64 °FClear.15 mph75%29.80 "Hg10 mi
1:53 AM64 °FClear.13 mph75%29.80 "Hg10 mi
12:53 AM64 °FClear.14 mph73%29.81 "Hg10 mi
11:53 PM
Mon, Aug 31
64 °FClear.14 mph73%29.80 "Hg10 mi
10:53 PM66 °FClear.15 mph65%29.80 "Hg10 mi
9:53 PM68 °FClear.14 mph61%29.81 "Hg10 mi
7:53 PM76 °FSunny.6 mph35%29.79 "Hg10 mi
6:53 PM81 °FSunny.12 mph28%29.78 "Hg10 mi
5:53 PM86 °FSunny.12 mph25%29.78 "Hg10 mi
4:53 PM89 °FSunny.15 mph24%29.79 "Hg10 mi
3:53 PM90 °FSunny.12 mph23%29.80 "Hg10 mi
2:53 PM90 °FSunny.13 mph28%29.81 "Hg10 mi
1:53 PM87 °FSunny.13 mph35%29.84 "Hg10 mi
12:53 PM86 °FSunny.N/A31%29.85 "Hg10 mi
11:53 AM83 °FSunny.3 mph32%29.87 "Hg10 mi
Weather by CustomWeather, © 2015

See weather overviewHow to use our weather pages